Location: Innsbruck
(47.2657°N, 11.3914°E)
Time: 09:53:38
(UTC+01:00)

BEESAT 3 - Pass Details

Date: 09 December 2021
Orbit: 472 x 512 km, 64.9° (Epoch: 22 January)

Event Time Altitude Azimuth Distance (km) Brightness Sun altitude
Rises 17:36:42 0° 190° (S) 2,541 ? -11.7°
Reaches altitude 10° 17:38:59 10° 179° (S) 1,673 ? -12.1°
Maximum altitude 17:42:16 30° 118° (ESE) 911 ? -12.6°
Enters shadow 17:43:55 21° 75° (ENE) 1,155 ? -12.9°
